QPF
0.00 0.00 0.00 0.00 0.00 0.00 0.00 0.00 0.00 0.00 0.00 0.00 0.00 0.00 0.00 0.00 0.00 0.00 0.00 0.00 0.00 0.00 0.00 0.00 0.00 0.00 0.00 0.00 0.00 0.00 0.00 0.00 0.00 0.00 0.00 0.00 0.00 0.00 0.00 0.01 0.01 0.01 0.01
0.00 0.00 0.00 0.00 0.00 0.00 0.00 0.00 0.00 0.00 0.00 0.00 0.00 0.00 0.00 0.00 0.00 0.00 0.00 0.00 0.00 0.00 0.00 0.00 0.00 0.00 0.00 0.00 0.00 0.00 0.00 0.00 0.00 0.00 0.00 0.00 0.00 0.00 0.01 0.01 0.01 0.01 0.01
0.00 0.00 0.00 0.00 0.00 0.00 0.00 0.00 0.00 0.00 0.00 0.00 0.00 0.00 0.00 0.00 0.00 0.00 0.00 0.00 0.00 0.00 0.00 0.00 0.00 0.00 0.00 0.00 0.00 0.00 0.00 0.00 0.00 0.00 0.00 0.00 0.00 0.00 0.00 0.01 0.01 0.01 0.01
0.00 0.00 0.00 0.00 0.00 0.00 0.00 0.00 0.00 0.00 0.00 0.00 0.00 0.00 0.00 0.00 0.00 0.00 0.00 0.00 0.00 0.00 0.00 0.00 0.00 0.00 0.00 0.00 0.00 0.00 0.00 0.00 0.00 0.00 0.00 0.00 0.00 0.00 0.00 0.00 0.00 0.00 0.00
0.00 0.00 0.00 0.00 0.00 0.00 0.00 0.00 0.00 0.00 0.00 0.00 0.00 0.00 0.00 0.00 0.00 0.00 0.00 0.00 0.00 0.00 0.00 0.00 0.00 0.00 0.00 0.00 0.00 0.00 0.00 0.00 0.00 0.00 0.00 0.00 0.00 0.00 0.00 0.00 0.00 0.00 0.01
0.00 0.00 0.00 0.00 0.00 0.00 0.00 0.00 0.00 0.00 0.00 0.00 0.00 0.00 0.00 0.00 0.00 0.00 0.00 0.00 0.00 0.00 0.00 0.00 0.00 0.00 0.00 0.00 0.00 0.00 0.00 0.00 0.00 0.00 0.00 0.00 0.00 0.00 0.00 0.00 0.00 0.01 0.01
0.00 0.00 0.00 0.00 0.00 0.00 0.00 0.00 0.00 0.00 0.00 0.00 0.00 0.00 0.00 0.00 0.00 0.00 0.00 0.00 0.00 0.00 0.00 0.00 0.00 0.00 0.00 0.00 0.00 0.00 0.00 0.00 0.00 0.00 0.00 0.00 0.00 0.00 0.00 0.00 0.00 0.01 0.01
0.00 0.00 0.00 0.00 0.00 0.00 0.00 0.00 0.00 0.00 0.00 0.00 0.00 0.00 0.00 0.00 0.00 0.00 0.00 0.00 0.00 0.00 0.00 0.00 0.00 0.00 0.00 0.00 0.00 0.00 0.00 0.00 0.00 0.00 0.00 0.00 0.00 0.00 0.00 0.00 0.00 0.00 0.01
0.00 0.00 0.00 0.00 0.00 0.00 0.00 0.00 0.00 0.00 0.00 0.00 0.00 0.00 0.00 0.00 0.00 0.00 0.00 0.00 0.00 0.00 0.00 0.00 0.00 0.00 0.00 0.00 0.00 0.00 0.00 0.00 0.00 0.00 0.00 0.00 0.00 0.00 0.00 0.00 0.00 0.00 0.00
0.00 0.00 0.00 0.00 0.00 0.00 0.00 0.00 0.00 0.00 0.00 0.00 0.00 0.00 0.00 0.00 0.00 0.00 0.00 0.00 0.00 0.00 0.00 0.00 0.00 0.00 0.00 0.00 0.00 0.00 0.00 0.00 0.00 0.00 0.00 0.00 0.00 0.00 0.00 0.00 0.00 0.01 0.01
0.00 0.00 0.00 0.00 0.00 0.00 0.00 0.00 0.00 0.00 0.00 0.00 0.00 0.00 0.00 0.00 0.00 0.00 0.00 0.00 0.00 0.00 0.00 0.00 0.00 0.00 0.00 0.00 0.00 0.00 0.00 0.00 0.00 0.00 0.00 0.00 0.00 0.00 0.00 0.00 0.01 0.01 0.01
0.00 0.00 0.00 0.00 0.00 0.00 0.00 0.00 0.00 0.00 0.00 0.00 0.00 0.00 0.00 0.00 0.00 0.00 0.00 0.00 0.00 0.00 0.00 0.00 0.00 0.00 0.00 0.00 0.00 0.00 0.00 0.00 0.00 0.00 0.00 0.00 0.00 0.00 0.00 0.00 0.01 0.01 0.01
0.00 0.00 0.00 0.00 0.00 0.00 0.00 0.00 0.00 0.00 0.00 0.00 0.00 0.00 0.00 0.00 0.00 0.01 0.01 0.01 0.01 0.01 0.00 0.00 0.00 0.00 0.00 0.00 0.00 0.00 0.00 0.00 0.00 0.00 0.00 0.00 0.00 0.00 0.00 0.00 0.00 0.01 0.01
0.00 0.00 0.00 0.00 0.00 0.00 0.00 0.00 0.00 0.00 0.00 0.01 0.00 0.00 0.00 0.00 0.01 0.02 0.02 0.02 0.01 0.00 0.00 0.00 0.00 0.00 0.00 0.00 0.00 0.00 0.00 0.00 0.00 0.00 0.00 0.00 0.00 0.00 0.00 0.00 0.00 0.00 0.01
0.00 0.00 0.00 0.00 0.00 0.00 0.00 0.00 0.00 0.00 0.00 0.00 0.01 0.01 0.01 0.01 0.01 0.01 0.01 0.00 0.00 0.00 0.00 0.00 0.00 0.00 0.00 0.00 0.00 0.00 0.00 0.00 0.00 0.00 0.00 0.00 0.00 0.00 0.00 0.00 0.01 0.01 0.01
0.00 0.00 0.00 0.00 0.00 0.00 0.00 0.00 0.01 0.01 0.01 0.01 0.01 0.01 0.00 0.00 0.00 0.00 0.00 0.00 0.01 0.01 0.01 0.00 0.00 0.00 0.00 0.00 0.00 0.00 0.00 0.00 0.00 0.00 0.00 0.00 0.00 0.00 0.01 0.01 0.01 0.01 0.01
0.00 0.00 0.00 0.00 0.00 0.00 0.00 0.01 0.01 0.01 0.01 0.01 0.01 0.01 0.00 0.00 0.00 0.00 0.01 0.01 0.01 0.00 0.00 0.00 0.00 0.00 0.00 0.00 0.00 0.00 0.00 0.00 0.00 0.00 0.00 0.00 0.00 0.00 0.00 0.01 0.01 0.01 0.01
0.00 0.00 0.00 0.00 0.00 0.00 0.00 0.01 0.01 0.01 0.01 0.01 0.01 0.01 0.01 0.01 0.01 0.01 0.01 0.01 0.01 0.01 0.01 0.01 0.00 0.00 0.00 0.00 0.00 0.00 0.00 0.00 0.00 0.00 0.00 0.00 0.00 0.00 0.00 0.01 0.01 0.01 0.01
0.00 0.00 0.00 0.00 0.00 0.00 0.00 0.00 0.01 0.01 0.01 0.01 0.01 0.01 0.01 0.01 0.01 0.01 0.01 0.01 0.01 0.01 0.01 0.01 0.01 0.00 0.00 0.00 0.00 0.00 0.00 0.00 0.00 0.00 0.00 0.00 0.00 0.00 0.00 0.01 0.01 0.01 0.01
0.00 0.00 0.00 0.00 0.00 0.00 0.00 0.00 0.00 0.01 0.01 0.01 0.01 0.01 0.01 0.01 0.01 0.01 0.01 0.01 0.01 0.01 0.01 0.01 0.01 0.00 0.00 0.00 0.00 0.00 0.00 0.00 0.00 0.00 0.00 0.00 0.00 0.00 0.00 0.00 0.01 0.01 0.01
0.00 0.00 0.00 0.00 0.00 0.00 0.00 0.00 0.00 0.01 0.01 0.01 0.01 0.01 0.01 0.01 0.01 0.01 0.01 0.01 0.02 0.02 0.01 0.01 0.01 0.00 0.00 0.00 0.00 0.00 0.00 0.00 0.00 0.00 0.00 0.00 0.00 0.00 0.00 0.00 0.00 0.00 0.01
0.00 0.00 0.00 0.00 0.00 0.00 0.00 0.00 0.00 0.00 0.01 0.01 0.01 0.00 0.01 0.01 0.01 0.01 0.01 0.01 0.01 0.01 0.01 0.01 0.00 0.00 0.00 0.00 0.00 0.00 0.00 0.01 0.00 0.00 0.00 0.00 0.00 0.00 0.00 0.00 0.00 0.01 0.01
0.00 0.00 0.00 0.00 0.00 0.00 0.00 0.00 0.01 0.00 0.00 0.00 0.00 0.00 0.00 0.00 0.01 0.01 0.01 0.01 0.01 0.01 0.01 0.01 0.01 0.00 0.00 0.00 0.01 0.01 0.01 0.01 0.01 0.00 0.01 0.00 0.00 0.00 0.00 0.00 0.00 0.01 0.01
0.00 0.00 0.00 0.00 0.00 0.00 0.00 0.00 0.01 0.00 0.00 0.00 0.00 0.00 0.01 0.00 0.00 0.01 0.01 0.01 0.00 0.01 0.01 0.01 0.01 0.00 0.00 0.00 0.01 0.01 0.01 0.01 0.01 0.00 0.01 0.01 0.00 0.00 0.00 0.00 0.00 0.00 0.01
0.00 0.00 0.00 0.00 0.00 0.00 0.00 0.00 0.00 0.00 0.01 0.01 0.01 0.00 0.00 0.00 0.01 0.01 0.00 0.00 0.00 0.00 0.00 0.00 0.00 0.00 0.00 0.01 0.01 0.01 0.01 0.01 0.01 0.00 0.00 0.01 0.01 0.00 0.00 0.00 0.00 0.00 0.00
0.00 0.00 0.00 0.00 0.00 0.00 0.00 0.00 0.00 0.00 0.01 0.01 0.01 0.01 0.01 0.01 0.01 0.01 0.00 0.00 0.00 0.00 0.00 0.00 0.00 0.00 0.00 0.00 0.01 0.01 0.01 0.02 0.02 0.02 0.01 0.01 0.01 0.01 0.01 0.00 0.00 0.00 0.00
MSLP
1016.50 1017.01 1017.47 1017.88 1018.26 1018.62 1018.94 1019.24 1019.51 1019.74 1019.92 1020.07 1020.20 1020.31 1020.42 1020.54 1020.68 1020.83 1020.98 1021.11 1021.22 1021.30 1021.35 1021.38 1021.40 1021.44 1021.49 1021.56 1021.65 1021.73 1021.81 1021.85 1021.85 1021.80 1021.72 1021.59 1021.44 1021.27 1021.08 1020.89 1020.69 1020.49 1020.27
1016.19 1016.73 1017.22 1017.68 1018.11 1018.50 1018.87 1019.20 1019.49 1019.75 1019.96 1020.14 1020.30 1020.44 1020.57 1020.70 1020.84 1020.98 1021.12 1021.25 1021.36 1021.46 1021.55 1021.62 1021.69 1021.77 1021.85 1021.93 1022.01 1022.08 1022.12 1022.13 1022.09 1022.02 1021.92 1021.79 1021.63 1021.46 1021.28 1021.10 1020.90 1020.70 1020.49
1015.84 1016.40 1016.93 1017.44 1017.91 1018.35 1018.76 1019.13 1019.46 1019.75 1020.00 1020.21 1020.40 1020.57 1020.73 1020.88 1021.02 1021.15 1021.28 1021.40 1021.52 1021.64 1021.75 1021.86 1021.97 1022.08 1022.18 1022.26 1022.33 1022.37 1022.38 1022.35 1022.28 1022.19 1022.08 1021.94 1021.79 1021.64 1021.47 1021.30 1021.11 1020.92 1020.73
1015.48 1016.06 1016.63 1017.18 1017.70 1018.18 1018.63 1019.03 1019.40 1019.72 1020.01 1020.27 1020.50 1020.71 1020.89 1021.06 1021.20 1021.34 1021.46 1021.58 1021.70 1021.82 1021.95 1022.08 1022.21 1022.34 1022.45 1022.53 1022.58 1022.60 1022.57 1022.51 1022.42 1022.32 1022.19 1022.06 1021.93 1021.79 1021.65 1021.49 1021.33 1021.16 1020.97
1015.15 1015.73 1016.32 1016.91 1017.47 1017.99 1018.47 1018.91 1019.30 1019.66 1019.99 1020.29 1020.56 1020.81 1021.03 1021.22 1021.39 1021.52 1021.64 1021.76 1021.87 1021.99 1022.12 1022.26 1022.40 1022.54 1022.65 1022.73 1022.77 1022.76 1022.71 1022.63 1022.53 1022.41 1022.29 1022.17 1022.05 1021.94 1021.81 1021.68 1021.53 1021.37 1021.20
1014.83 1015.42 1016.02 1016.63 1017.21 1017.76 1018.27 1018.73 1019.16 1019.55 1019.91 1020.25 1020.57 1020.87 1021.13 1021.35 1021.54 1021.68 1021.80 1021.91 1022.01 1022.12 1022.25 1022.39 1022.54 1022.67 1022.79 1022.86 1022.89 1022.87 1022.81 1022.72 1022.61 1022.49 1022.38 1022.28 1022.17 1022.07 1021.96 1021.84 1021.71 1021.56 1021.40
1014.51 1015.09 1015.70 1016.32 1016.92 1017.49 1018.01 1018.49 1018.94 1019.36 1019.75 1020.14 1020.51 1020.85 1021.16 1021.42 1021.63 1021.79 1021.91 1022.01 1022.10 1022.20 1022.32 1022.46 1022.60 1022.73 1022.85 1022.92 1022.95 1022.94 1022.88 1022.79 1022.69 1022.58 1022.48 1022.39 1022.29 1022.20 1022.09 1021.97 1021.84 1021.68 1021.52
1014.15 1014.72 1015.33 1015.96 1016.57 1017.15 1017.68 1018.18 1018.64 1019.08 1019.51 1019.94 1020.35 1020.74 1021.09 1021.39 1021.63 1021.81 1021.94 1022.04 1022.12 1022.21 1022.32 1022.45 1022.58 1022.72 1022.84 1022.92 1022.97 1022.96 1022.92 1022.86 1022.77 1022.68 1022.59 1022.50 1022.41 1022.31 1022.20 1022.07 1021.92 1021.75 1021.58
1013.72 1014.29 1014.91 1015.53 1016.15 1016.73 1017.27 1017.78 1018.25 1018.72 1019.18 1019.64 1020.09 1020.52 1020.92 1021.25 1021.52 1021.72 1021.86 1021.97 1022.05 1022.13 1022.23 1022.36 1022.49 1022.63 1022.76 1022.86 1022.93 1022.95 1022.94 1022.90 1022.84 1022.77 1022.69 1022.61 1022.51 1022.40 1022.26 1022.11 1021.94 1021.75 1021.57
1013.22 1013.80 1014.41 1015.04 1015.66 1016.24 1016.79 1017.30 1017.79 1018.27 1018.75 1019.24 1019.72 1020.19 1020.63 1021.00 1021.30 1021.52 1021.68 1021.79 1021.88 1021.96 1022.06 1022.18 1022.31 1022.46 1022.60 1022.73 1022.82 1022.88 1022.90 1022.89 1022.87 1022.82 1022.75 1022.67 1022.57 1022.44 1022.28 1022.09 1021.89 1021.69 1021.49
1012.64 1013.23 1013.86 1014.50 1015.12 1015.70 1016.24 1016.76 1017.25 1017.74 1018.24 1018.75 1019.26 1019.76 1020.23 1020.63 1020.96 1021.21 1021.38 1021.51 1021.60 1021.69 1021.79 1021.91 1022.05 1022.21 1022.36 1022.50 1022.62 1022.71 1022.77 1022.80 1022.80 1022.77 1022.72 1022.65 1022.53 1022.39 1022.21 1022.00 1021.78 1021.56 1021.35
1012.00 1012.62 1013.27 1013.92 1014.54 1015.12 1015.66 1016.17 1016.66 1017.16 1017.66 1018.19 1018.72 1019.24 1019.73 1020.16 1020.52 1020.79 1020.99 1021.14 1021.24 1021.34 1021.45 1021.57 1021.71 1021.87 1022.03 1022.18 1022.32 1022.43 1022.51 1022.57 1022.60 1022.60 1022.56 1022.50 1022.39 1022.23 1022.04 1021.82 1021.59 1021.36 1021.15
1011.32 1011.98 1012.66 1013.31 1013.94 1014.52 1015.05 1015.56 1016.04 1016.54 1017.04 1017.58 1018.12 1018.65 1019.16 1019.61 1019.99 1020.30 1020.52 1020.69 1020.82 1020.93 1021.04 1021.16 1021.30 1021.45 1021.61 1021.76 1021.90 1022.02 1022.12 1022.19 1022.24 1022.26 1022.25 1022.20 1022.10 1021.95 1021.77 1021.55 1021.32 1021.09 1020.88
1010.62 1011.33 1012.04 1012.71 1013.33 1013.91 1014.44 1014.93 1015.41 1015.90 1016.40 1016.93 1017.48 1018.02 1018.54 1019.02 1019.42 1019.75 1020.01 1020.20 1020.36 1020.48 1020.60 1020.72 1020.85 1020.99 1021.13 1021.26 1021.39 1021.50 1021.60 1021.68 1021.75 1021.78 1021.79 1021.76 1021.68 1021.55 1021.38 1021.18 1020.96 1020.75 1020.56
1009.93 1010.69 1011.42 1012.10 1012.74 1013.31 1013.83 1014.32 1014.79 1015.27 1015.77 1016.29 1016.84 1017.39 1017.92 1018.41 1018.84 1019.19 1019.48 1019.70 1019.88 1020.02 1020.15 1020.27 1020.39 1020.50 1020.62 1020.73 1020.83 1020.93 1021.01 1021.09 1021.16 1021.20 1021.22 1021.21 1021.15 1021.05 1020.91 1020.74 1020.54 1020.35 1020.18
1009.26 1010.05 1010.81 1011.51 1012.15 1012.73 1013.25 1013.73 1014.20 1014.67 1015.16 1015.69 1016.23 1016.78 1017.32 1017.81 1018.26 1018.64 1018.95 1019.20 1019.40 1019.57 1019.71 1019.83 1019.94 1020.04 1020.14 1020.22 1020.29 1020.36 1020.42 1020.48 1020.54 1020.59 1020.61 1020.61 1020.58 1020.50 1020.39 1020.24 1020.08 1019.91 1019.75
1008.60 1009.43 1010.22 1010.94 1011.59 1012.17 1012.70 1013.19 1013.65 1014.13 1014.63 1015.15 1015.69 1016.24 1016.77 1017.28 1017.73 1018.12 1018.46 1018.73 1018.96 1019.14 1019.30 1019.43 1019.54 1019.64 1019.71 1019.78 1019.83 1019.87 1019.91 1019.95 1019.98 1020.02 1020.04 1020.04 1020.02 1019.95 1019.86 1019.73 1019.59 1019.44 1019.29
1007.99 1008.85 1009.65 1010.40 1011.07 1011.67 1012.21 1012.71 1013.20 1013.68 1014.18 1014.70 1015.24 1015.78 1016.31 1016.81 1017.26 1017.66 1018.00 1018.29 1018.54 1018.74 1018.92 1019.07 1019.19 1019.29 1019.37 1019.43 1019.47 1019.49 1019.51 1019.52 1019.54 1019.55 1019.55 1019.54 1019.51 1019.44 1019.35 1019.23 1019.09 1018.95 1018.82
1007.44 1008.32 1009.15 1009.92 1010.61 1011.24 1011.81 1012.34 1012.84 1013.34 1013.85 1014.37 1014.90 1015.43 1015.95 1016.43 1016.87 1017.26 1017.60 1017.89 1018.14 1018.37 1018.56 1018.73 1018.88 1019.01 1019.10 1019.17 1019.21 1019.23 1019.24 1019.23 1019.22 1019.20 1019.17 1019.13 1019.07 1018.98 1018.88 1018.75 1018.61 1018.46 1018.33
1006.98 1007.88 1008.74 1009.53 1010.26 1010.92 1011.52 1012.08 1012.61 1013.14 1013.65 1014.18 1014.70 1015.21 1015.70 1016.15 1016.56 1016.92 1017.24 1017.52 1017.78 1018.01 1018.22 1018.42 1018.59 1018.75 1018.88 1018.97 1019.03 1019.06 1019.06 1019.03 1018.99 1018.94 1018.87 1018.79 1018.68 1018.56 1018.43 1018.28 1018.13 1017.97 1017.83
1006.64 1007.57 1008.45 1009.28 1010.04 1010.74 1011.38 1011.97 1012.53 1013.07 1013.60 1014.12 1014.63 1015.11 1015.56 1015.97 1016.34 1016.66 1016.95 1017.20 1017.44 1017.66 1017.88 1018.10 1018.30 1018.49 1018.65 1018.77 1018.86 1018.90 1018.90 1018.87 1018.80 1018.71 1018.60 1018.47 1018.32 1018.16 1017.99 1017.81 1017.64 1017.48 1017.32
1006.47 1007.42 1008.33 1009.19 1009.99 1010.72 1011.39 1012.01 1012.59 1013.15 1013.68 1014.19 1014.68 1015.13 1015.55 1015.91 1016.23 1016.50 1016.74 1016.95 1017.15 1017.36 1017.57 1017.78 1018.00 1018.21 1018.40 1018.55 1018.65 1018.71 1018.71 1018.67 1018.58 1018.45 1018.30 1018.13 1017.94 1017.74 1017.53 1017.33 1017.15 1016.97 1016.82
1006.47 1007.45 1008.39 1009.27 1010.09 1010.84 1011.54 1012.18 1012.77 1013.34 1013.87 1014.38 1014.84 1015.27 1015.65 1015.97 1016.24 1016.45 1016.64 1016.80 1016.96 1017.12 1017.30 1017.50 1017.71 1017.92 1018.11 1018.27 1018.38 1018.44 1018.44 1018.39 1018.28 1018.13 1017.95 1017.74 1017.52 1017.29 1017.07 1016.85 1016.66 1016.48 1016.32
1006.67 1007.67 1008.62 1009.52 1010.35 1011.11 1011.81 1012.45 1013.05 1013.62 1014.15 1014.65 1015.10 1015.51 1015.87 1016.15 1016.38 1016.56 1016.69 1016.80 1016.90 1017.01 1017.14 1017.30 1017.47 1017.65 1017.82 1017.96 1018.06 1018.11 1018.10 1018.04 1017.91 1017.74 1017.54 1017.32 1017.08 1016.84 1016.61 1016.40 1016.20 1016.03 1015.87
1007.04 1008.04 1009.00 1009.90 1010.72 1011.47 1012.16 1012.80 1013.39 1013.95 1014.48 1014.98 1015.44 1015.84 1016.19 1016.47 1016.68 1016.82 1016.92 1016.98 1017.03 1017.08 1017.15 1017.24 1017.36 1017.48 1017.60 1017.69 1017.76 1017.78 1017.75 1017.66 1017.53 1017.35 1017.14 1016.91 1016.68 1016.44 1016.22 1016.02 1015.83 1015.66 1015.50
1007.55 1008.55 1009.50 1010.37 1011.17 1011.90 1012.56 1013.17 1013.76 1014.31 1014.84 1015.35 1015.83 1016.26 1016.62 1016.91 1017.13 1017.27 1017.35 1017.38 1017.38 1017.38 1017.37 1017.39 1017.42 1017.47 1017.51 1017.55 1017.56 1017.53 1017.47 1017.36 1017.21 1017.03 1016.83 1016.61 1016.38 1016.17 1015.96 1015.77 1015.59 1015.41 1015.25
Thickness
5692 5690 5688 5686 5684 5682 5679 5677 5676 5674 5671 5668 5665 5663 5660 5657 5653 5647 5642 5638 5634 5631 5627 5623 5619 5616 5612 5608 5604 5600 5597 5594 5591 5588 5585 5582 5580 5578 5577 5575 5573 5572 5571
5690 5688 5686 5684 5682 5679 5676 5674 5672 5669 5666 5663 5660 5657 5654 5651 5647 5642 5636 5631 5627 5623 5619 5615 5611 5608 5604 5600 5596 5592 5588 5585 5582 5579 5576 5573 5571 5569 5567 5566 5564 5563 5562
5688 5686 5684 5681 5679 5676 5673 5670 5668 5665 5661 5658 5654 5651 5647 5644 5640 5636 5630 5625 5620 5615 5611 5607 5603 5599 5596 5592 5588 5584 5580 5577 5573 5570 5568 5565 5562 5560 5558 5557 5555 5553 5552
5686 5683 5681 5678 5676 5672 5669 5666 5663 5659 5655 5651 5647 5644 5641 5637 5633 5629 5624 5619 5614 5609 5604 5599 5595 5591 5588 5584 5580 5576 5572 5569 5565 5562 5559 5557 5554 5552 5550 5548 5546 5545 5544
5683 5681 5678 5675 5672 5668 5665 5662 5658 5653 5648 5644 5640 5637 5634 5630 5626 5622 5618 5613 5608 5603 5598 5593 5588 5584 5580 5576 5572 5568 5565 5561 5558 5555 5552 5549 5546 5544 5542 5540 5538 5537 5536
5681 5678 5675 5672 5669 5664 5660 5657 5652 5648 5643 5638 5635 5630 5626 5623 5620 5616 5612 5607 5602 5597 5592 5587 5582 5577 5573 5569 5565 5561 5558 5554 5551 5547 5544 5541 5539 5536 5534 5532 5530 5529 5527
5678 5675 5672 5669 5665 5661 5656 5653 5648 5642 5637 5633 5626 5620 5618 5616 5613 5609 5606 5601 5596 5591 5586 5581 5576 5571 5566 5562 5558 5554 5550 5547 5543 5540 5537 5534 5531 5529 5526 5524 5522 5521 5519
5676 5673 5670 5666 5662 5657 5653 5649 5644 5637 5632 5628 5621 5613 5608 5605 5604 5604 5600 5595 5590 5586 5581 5576 5571 5566 5561 5556 5551 5547 5543 5539 5536 5533 5529 5526 5524 5521 5519 5517 5514 5512 5511
5674 5671 5667 5663 5659 5654 5649 5645 5640 5634 5626 5622 5619 5612 5604 5600 5596 5595 5592 5589 5584 5580 5575 5571 5566 5561 5556 5551 5546 5541 5536 5532 5528 5525 5522 5518 5516 5513 5511 5508 5506 5504 5502
5671 5668 5664 5660 5656 5652 5647 5642 5638 5632 5624 5617 5613 5610 5606 5601 5593 5586 5583 5582 5579 5574 5570 5566 5561 5556 5551 5545 5540 5534 5529 5524 5520 5517 5514 5511 5508 5505 5502 5500 5498 5495 5493
5669 5666 5662 5658 5653 5649 5644 5639 5634 5628 5622 5615 5609 5604 5600 5596 5592 5583 5576 5573 5570 5569 5565 5561 5556 5551 5545 5540 5534 5528 5523 5518 5513 5509 5505 5502 5498 5495 5493 5490 5488 5485 5483
5666 5663 5659 5655 5651 5646 5641 5637 5631 5625 5619 5613 5607 5601 5596 5589 5584 5579 5573 5568 5564 5562 5560 5555 5550 5546 5540 5535 5529 5523 5517 5511 5506 5501 5497 5493 5489 5485 5482 5480 5477 5474 5472
5665 5662 5657 5653 5649 5644 5638 5633 5628 5622 5616 5610 5604 5599 5593 5588 5584 5578 5571 5565 5560 5556 5553 5549 5545 5540 5535 5529 5522 5516 5510 5504 5499 5493 5488 5483 5479 5475 5471 5468 5465 5462 5460
5666 5661 5655 5650 5646 5640 5635 5630 5624 5618 5612 5607 5601 5595 5589 5585 5580 5574 5567 5559 5552 5548 5545 5542 5538 5534 5529 5522 5516 5509 5503 5496 5491 5485 5479 5474 5469 5464 5460 5456 5453 5449 5446
5663 5657 5652 5647 5642 5637 5631 5626 5620 5614 5608 5602 5597 5591 5585 5580 5575 5569 5563 5556 5547 5539 5536 5535 5530 5527 5522 5515 5508 5501 5494 5488 5482 5475 5469 5464 5458 5453 5448 5444 5440 5436 5433
5659 5654 5649 5644 5639 5633 5628 5622 5616 5610 5603 5598 5592 5586 5581 5575 5570 5563 5557 5551 5544 5536 5530 5529 5524 5519 5514 5507 5500 5492 5485 5478 5472 5465 5459 5453 5447 5441 5436 5431 5427 5422 5419
5656 5651 5646 5640 5635 5629 5624 5617 5611 5605 5599 5593 5587 5582 5576 5570 5563 5557 5551 5545 5538 5532 5524 5521 5517 5511 5504 5498 5491 5483 5476 5468 5462 5454 5448 5442 5435 5429 5423 5418 5413 5408 5404
5652 5647 5642 5636 5631 5625 5620 5614 5607 5601 5595 5589 5583 5577 5570 5564 5557 5551 5544 5538 5532 5526 5519 5512 5507 5501 5494 5488 5481 5473 5465 5458 5451 5444 5437 5430 5423 5416 5410 5404 5399 5394 5389
5647 5642 5637 5632 5626 5621 5615 5610 5603 5597 5591 5585 5579 5572 5565 5558 5551 5544 5538 5532 5526 5520 5512 5504 5497 5491 5485 5478 5470 5462 5454 5446 5439 5431 5424 5417 5410 5403 5397 5391 5385 5379 5374
5642 5637 5632 5626 5621 5616 5610 5604 5598 5592 5585 5579 5573 5566 5560 5553 5546 5539 5532 5525 5518 5510 5503 5494 5487 5480 5473 5467 5458 5449 5442 5434 5427 5420 5412 5404 5397 5390 5383 5377 5371 5364 5357
5635 5630 5625 5619 5615 5609 5604 5598 5592 5585 5579 5572 5565 5559 5553 5546 5540 5534 5526 5518 5510 5501 5492 5484 5476 5469 5462 5454 5445 5438 5429 5422 5415 5407 5399 5391 5384 5377 5369 5362 5356 5349 5342
5627 5622 5617 5612 5607 5603 5598 5592 5585 5578 5572 5565 5558 5551 5545 5538 5532 5526 5519 5512 5504 5494 5484 5475 5466 5458 5451 5443 5435 5425 5414 5407 5400 5395 5386 5379 5371 5364 5356 5349 5342 5335 5329
5619 5614 5610 5605 5600 5595 5590 5584 5578 5571 5564 5557 5551 5543 5537 5530 5523 5516 5510 5503 5495 5487 5479 5469 5458 5450 5441 5434 5424 5413 5401 5391 5383 5379 5372 5366 5358 5350 5343 5336 5329 5323 5317
5612 5607 5602 5597 5591 5586 5581 5576 5569 5562 5555 5549 5543 5536 5529 5522 5515 5508 5500 5492 5483 5476 5469 5460 5451 5441 5431 5422 5412 5401 5389 5380 5372 5365 5357 5350 5345 5337 5332 5325 5318 5311 5305
5602 5598 5593 5588 5583 5577 5572 5567 5561 5553 5546 5539 5533 5527 5521 5513 5507 5500 5491 5482 5473 5464 5457 5448 5439 5429 5420 5409 5399 5387 5377 5366 5359 5353 5345 5336 5331 5326 5321 5315 5307 5300 5294
5593 5589 5583 5579 5574 5568 5563 5558 5553 5546 5538 5530 5523 5517 5511 5505 5498 5490 5482 5472 5462 5454 5446 5436 5426 5416 5406 5396 5385 5375 5364 5353 5345 5339 5333 5323 5316 5309 5308 5305 5297 5290 5284